Hourly Weather Srednyaya Korsa

Today, 6 July, Monday

Time Temperature Precipitation Wind Pressure Humidity
00:00 +20°C° 0 mm 2 mps 747 mmHg 91%
01:00 +19°C° 0 mm 2 mps 747 mmHg 92%
02:00 +19°C° 0 mm 2 mps 747 mmHg 93%
03:00 +19°C° 0 mm 2 mps 747 mmHg 93%
04:00 +20°C° 0 mm 2 mps 747 mmHg 92%
05:00 +21°C° 0 mm 2 mps 747 mmHg 90%
06:00 +23°C° 0 mm 2 mps 747 mmHg 89%
07:00 +24°C° 0.3 mm 2 mps 747 mmHg 85%
08:00 +25°C° 0.3 mm 3 mps 748 mmHg 82%
09:00 +27°C° 0 mm 3 mps 748 mmHg 76%
10:00 +27°C° 1 mm 3 mps 748 mmHg 74%
11:00 +28°C° 1 mm 4 mps 748 mmHg 72%
12:00 +28°C° 1 mm 4 mps 747 mmHg 70%
13:00 +28°C° 0.2 mm 4 mps 747 mmHg 69%
14:00 +29°C° 0.2 mm 4 mps 748 mmHg 68%
15:00 +29°C° 0.2 mm 4 mps 748 mmHg 67%
16:00 +29°C° 0.2 mm 3 mps 748 mmHg 71%
17:00 +28°C° 0.2 mm 2 mps 748 mmHg 75%
18:00 +28°C° 0.2 mm 2 mps 747 mmHg 79%
19:00 +26°C° 0.1 mm 1 mps 748 mmHg 82%
20:00 +25°C° 0.1 mm 1 mps 748 mmHg 84%
21:00 +23°C° 0.1 mm 1 mps 748 mmHg 87%
22:00 +23°C° 0 mm 1 mps 748 mmHg 87%
23:00 +22°C° 0 mm 1 mps 748 mmHg 88%

Tomorrow, 7 July, Tuesday

Time Temperature Precipitation Wind Pressure Humidity
00:00 +22°C° 0 mm 1 mps 748 mmHg 88%
01:00 +22°C° 0 mm 1 mps 749 mmHg 88%
02:00 +21°C° 0 mm 1 mps 749 mmHg 88%
03:00 +21°C° 0 mm 1 mps 749 mmHg 88%
04:00 +22°C° 0 mm 1 mps 749 mmHg 87%
05:00 +23°C° 0 mm 1 mps 749 mmHg 86%
06:00 +24°C° 0 mm 2 mps 749 mmHg 84%
07:00 +25°C° 0 mm 2 mps 749 mmHg 80%
08:00 +26°C° 0 mm 2 mps 750 mmHg 76%
09:00 +28°C° 0 mm 3 mps 750 mmHg 72%
10:00 +28°C° 0 mm 3 mps 750 mmHg 70%
11:00 +29°C° 0 mm 2 mps 750 mmHg 67%
12:00 +30°C° 0 mm 2 mps 749 mmHg 64%
13:00 +30°C° 0 mm 2 mps 749 mmHg 64%
14:00 +30°C° 0 mm 2 mps 750 mmHg 64%
15:00 +31°C° 0 mm 2 mps 750 mmHg 63%
16:00 +30°C° 0.1 mm 2 mps 750 mmHg 67%
17:00 +30°C° 0.1 mm 2 mps 749 mmHg 71%
18:00 +30°C° 0.1 mm 2 mps 749 mmHg 75%
19:00 +28°C° 0.1 mm 2 mps 750 mmHg 79%
20:00 +26°C° 0.1 mm 2 mps 750 mmHg 84%
21:00 +25°C° 0.1 mm 3 mps 750 mmHg 88%
22:00 +24°C° 0 mm 3 mps 750 mmHg 89%
23:00 +22°C° 0 mm 3 mps 750 mmHg 89%

Day after tomorrow, 8 July, Wednesday

Time Temperature Precipitation Wind Pressure Humidity
00:00 +22°C° 0 mm 3 mps 750 mmHg 90%
01:00 +21°C° 0 mm 3 mps 750 mmHg 90%
02:00 +21°C° 0 mm 2 mps 750 mmHg 91%
03:00 +21°C° 0 mm 2 mps 751 mmHg 91%
04:00 +23°C° 0 mm 2 mps 751 mmHg 89%
05:00 +24°C° 0 mm 2 mps 751 mmHg 88%
06:00 +25°C° 0 mm 3 mps 751 mmHg 86%
07:00 +26°C° 0 mm 3 mps 751 mmHg 83%
08:00 +27°C° 0 mm 3 mps 751 mmHg 80%
09:00 +29°C° 0 mm 3 mps 751 mmHg 77%
10:00 +29°C° 0 mm 3 mps 751 mmHg 74%
11:00 +30°C° 0 mm 4 mps 751 mmHg 71%
12:00 +32°C° 0 mm 4 mps 751 mmHg 68%
13:00 +32°C° 0.1 mm 4 mps 751 mmHg 68%
14:00 +32°C° 0.1 mm 4 mps 751 mmHg 68%
15:00 +32°C° 0.1 mm 4 mps 751 mmHg 68%
16:00 +32°C° 0.3 mm 4 mps 751 mmHg 72%
17:00 +30°C° 0.3 mm 3 mps 751 mmHg 77%
18:00 +29°C° 0.3 mm 3 mps 751 mmHg 81%
19:00 +28°C° 0.1 mm 3 mps 751 mmHg 85%
20:00 +26°C° 0.1 mm 3 mps 751 mmHg 88%
21:00 +25°C° 0.1 mm 3 mps 751 mmHg 92%
22:00 +24°C° 0 mm 3 mps 751 mmHg 93%
23:00 +24°C° 0 mm 3 mps 751 mmHg 93%

9 July, Thursday

Time Temperature Precipitation Wind Pressure Humidity
00:00 +22°C° 0 mm 3 mps 751 mmHg 94%
01:00 +22°C° 0 mm 3 mps 751 mmHg 94%
02:00 +22°C° 0 mm 3 mps 751 mmHg 94%
03:00 +22°C° 0 mm 3 mps 751 mmHg 95%
04:00 +22°C° 0 mm 3 mps 751 mmHg 92%
05:00 +23°C° 0 mm 4 mps 751 mmHg 90%
06:00 +25°C° 0 mm 4 mps 751 mmHg 88%
07:00 +26°C° 0 mm 4 mps 751 mmHg 84%
08:00 +27°C° 0 mm 4 mps 751 mmHg 81%
09:00 +28°C° 0 mm 4 mps 751 mmHg 77%
10:00 +29°C° 0 mm 5 mps 751 mmHg 73%
11:00 +30°C° 0 mm 5 mps 751 mmHg 69%
12:00 +32°C° 0 mm 5 mps 751 mmHg 64%
13:00 +32°C° 0 mm 5 mps 751 mmHg 64%
14:00 +32°C° 0 mm 5 mps 751 mmHg 64%
15:00 +32°C° 0 mm 5 mps 750 mmHg 64%
16:00 +30°C° 0 mm 4 mps 750 mmHg 69%
17:00 +29°C° 0 mm 4 mps 750 mmHg 73%
18:00 +29°C° 0 mm 3 mps 750 mmHg 78%
19:00 +27°C° 0 mm 3 mps 750 mmHg 80%
20:00 +26°C° 0 mm 4 mps 750 mmHg 83%
21:00 +23°C° 0 mm 4 mps 749 mmHg 85%
22:00 +23°C° 0 mm 4 mps 749 mmHg 85%
23:00 +23°C° 0 mm 4 mps 749 mmHg 85%

10 July, Friday

Time Temperature Precipitation Wind Pressure Humidity
00:00 +22°C° 0 mm 4 mps 749 mmHg 85%
01:00 +22°C° 0 mm 5 mps 749 mmHg 83%
02:00 +22°C° 0 mm 5 mps 748 mmHg 81%
03:00 +22°C° 0 mm 5 mps 748 mmHg 79%
04:00 +22°C° 0 mm 5 mps 748 mmHg 79%
05:00 +23°C° 0 mm 6 mps 748 mmHg 79%
06:00 +23°C° 0 mm 6 mps 747 mmHg 79%
07:00 +24°C° 0 mm 7 mps 747 mmHg 77%
08:00 +26°C° 0 mm 7 mps 747 mmHg 74%
09:00 +27°C° 0 mm 7 mps 747 mmHg 72%
10:00 +27°C° 0 mm 7 mps 747 mmHg 70%
11:00 +28°C° 0 mm 6 mps 747 mmHg 68%
12:00 +28°C° 0 mm 5 mps 747 mmHg 67%
13:00 +27°C° 0.2 mm 5 mps 747 mmHg 72%
14:00 +25°C° 0.2 mm 5 mps 747 mmHg 77%
15:00 +23°C° 0.2 mm 4 mps 747 mmHg 83%
16:00 +23°C° 0.4 mm 4 mps 747 mmHg 84%
17:00 +22°C° 0.4 mm 4 mps 747 mmHg 86%
18:00 +22°C° 0.4 mm 4 mps 747 mmHg 88%
19:00 +20°C° 0.1 mm 4 mps 747 mmHg 90%
20:00 +19°C° 0.1 mm 4 mps 748 mmHg 91%
21:00 +17°C° 0.1 mm 4 mps 748 mmHg 92%
22:00 +15°C° 0 mm 4 mps 748 mmHg 91%
23:00 +13°C° 0 mm 5 mps 749 mmHg 91%

11 July, Saturday

Time Temperature Precipitation Wind Pressure Humidity
00:00 +12°C° 0 mm 5 mps 749 mmHg 90%
01:00 +11°C° 0 mm 4 mps 750 mmHg 90%
02:00 +11°C° 0 mm 4 mps 750 mmHg 90%
03:00 +11°C° 0 mm 4 mps 751 mmHg 89%
04:00 +11°C° 0 mm 4 mps 751 mmHg 88%
05:00 +12°C° 0 mm 4 mps 751 mmHg 87%
06:00 +13°C° 0 mm 4 mps 751 mmHg 86%
07:00 +15°C° 0 mm 5 mps 751 mmHg 81%
08:00 +17°C° 0 mm 5 mps 752 mmHg 75%
09:00 +19°C° 0 mm 5 mps 752 mmHg 70%
10:00 +20°C° 0 mm 5 mps 752 mmHg 66%
11:00 +21°C° 0 mm 5 mps 752 mmHg 62%
12:00 +22°C° 0 mm 5 mps 752 mmHg 58%
13:00 +22°C° 0 mm 5 mps 752 mmHg 58%
14:00 +22°C° 0 mm 5 mps 752 mmHg 57%
15:00 +23°C° 0 mm 5 mps 752 mmHg 57%
16:00 +22°C° 0 mm 5 mps 752 mmHg 62%
17:00 +21°C° 0 mm 4 mps 753 mmHg 66%
18:00 +21°C° 0 mm 3 mps 753 mmHg 71%
19:00 +19°C° 0 mm 3 mps 753 mmHg 73%
20:00 +18°C° 0 mm 3 mps 753 mmHg 74%
21:00 +16°C° 0 mm 3 mps 753 mmHg 76%
22:00 +16°C° 0 mm 2 mps 753 mmHg 78%
23:00 +16°C° 0 mm 2 mps 753 mmHg 80%
Show more